Flag for Poland Weather past 2 weeks in Szczecin, Poland

Now
75 °F

Scattered clouds.


Feels Like: 78 °F
Forecast: 55 / 69 °F
Wind: No wind

Location: Szczecin Airport

Current Time: Sep 20, 2014 at 4:32:57 PM

Latest Report: Sep 20, 2014 at 3:30 PM


Visibility: N/A

Pressure: 29.89 "Hg

Humidity: 44%

Dew point: 52 °F

Location of SzczecinLocation

Historic Weather in Szczecin — Graph

°F

Szczecin temperature yesterday

Maximum temperature yesterday: 73 °F (at 3:00 PM)
Minimum temperature yesterday: 55 °F (at 5:00 AM)
Average temperature yesterday: 63 °F

Past Weeks' High & Low Weather Summary

 TemperatureHumidityPressure
High79 °F (Sep 15, 4:30 PM)100% (Sep 7, 10:30 PM)30.18 "Hg (Sep 7, 10:30 PM)
Low48 °F (Sep 10, 10:30 PM)39% (Sep 6, 2:30 PM)29.89 "Hg (Sep 7, 3:30 PM)
Average63 °F78%30.04 "Hg
* Reported Sep 5 3:00 PM — Sep 20 3:00 PM, Szczecin, Weather by CustomWeather, © 2014

Note: Actual official high and low records may vary slightly from our data, if they occured in-between our weather recording intervals... More about our weather records

Advertising

Szczecin weather history for previous 24 hours

 ConditionsComfort  
Time TempWeatherWind HumidityBarometerVisibility
3:00 PM
Sep 20
75 °FScattered clouds.2 mph47%29.92 "HgN/A
2:30 PM75 °FScattered clouds.6 mph47%29.92 "HgN/A
2:00 PM73 °FSunny.2 mph53%29.92 "Hg10 mi
1:30 PM73 °FSunny.3 mph53%29.92 "Hg10 mi
1:00 PM73 °FSunny.5 mph53%29.92 "Hg10 mi
12:30 PM73 °FSunny.3 mph53%29.92 "Hg10 mi
12:00 PM72 °FSunny.3 mph57%29.92 "Hg10 mi
11:30 AM70 °FSunny.5 mph60%29.95 "Hg10 mi
11:00 AM70 °FSunny.5 mph60%29.95 "Hg10 mi
10:30 AM68 °FSunny.3 mph69%29.95 "Hg10 mi
10:00 AM64 °FSunny.3 mph78%29.95 "Hg10 mi
9:30 AM63 °FClear.No wind83%29.95 "Hg5 mi
9:00 AM61 °FClear.No wind83%29.95 "Hg5 mi
8:30 AM55 °FFog.No wind88%29.95 "Hg5 mi
8:00 AM52 °FFog.No wind94%29.95 "Hg5 mi
7:30 AM48 °FFog.No wind100%29.95 "Hg3 mi
7:00 AM48 °FFog.No wind100%29.95 "Hg2 mi
6:30 AM48 °FFog.No wind100%29.95 "Hg2 mi
6:00 AM48 °FFog.No wind100%29.95 "Hg3 mi
5:30 AM50 °FClear.No wind94%29.95 "Hg4 mi
5:00 AM50 °FClear.No wind94%29.95 "Hg5 mi
4:30 AM50 °FFog.No wind100%29.95 "Hg2 mi
4:00 AM50 °FClear.No wind100%29.95 "Hg4 mi
3:00 AM52 °FFog.No wind94%29.95 "Hg3 mi
2:30 AM52 °FFog.No wind94%29.95 "Hg3 mi
2:00 AM52 °FFog.No wind100%29.95 "Hg2 mi
1:30 AM52 °FFog.No wind100%29.95 "Hg4 mi
1:00 AM54 °FFog.No wind94%29.95 "Hg3 mi
12:30 AM54 °FFog.No wind100%29.95 "Hg2 mi
7:30 PM
Sep 19
64 °FSunny.2 mph73%29.95 "Hg10 mi
7:00 PM66 °FSunny.5 mph64%29.95 "Hg10 mi
6:30 PM68 °FSunny.5 mph60%29.95 "Hg10 mi
6:00 PM70 °FSunny.7 mph60%29.95 "Hg10 mi
5:30 PM72 °FSunny.8 mph53%29.95 "Hg10 mi
5:00 PM70 °FSunny.8 mph57%29.95 "Hg10 mi
4:30 PM72 °FScattered clouds.6 mph57%29.95 "HgN/A
4:00 PM72 °FPassing clouds.5 mph61%29.95 "HgN/A
Weather by CustomWeather, © 2014

See weather overviewHow to use our weather pages